Back to catalog

KUIPER-00468

AliveCommunicationsLEO
NORAD 68873·PAYLOAD·🇺🇸 United States

Launched Apr 28, 2026 from Cape Canaveral Space Force Station

Loading…

Next Passes (next 24 hours)

TLE

FreshSource: CelesTrak SupGP

Epoch: Sep 14, 2026, 17:31 UTC

1 68873C 26095K   26257.73027778  .00002030  00000+0  28731-3 0  2572
2 68873  51.8971 192.1788 0000880 158.0574  72.0343 14.76616915    13

Track KUIPER-00468 in real time with AllMySat

Download on the App Store